CZ-3B DEB, 40839

Orbit data source: Space-Track

CZ-3B DEB, 40839 is space debris in HEO originally from a launch on Mon, 19 Dec 2011 UTC launched from the Xichang Space Center, China (XSC). Debris objects in space refer to the collection of defunct objects orbiting the Earth. Examples of debris include non-operational satellites, rocket bodies, and fragments generated from explosions, collisions, or faulty payload assembly.

Loading next visibility...
Identifier
40839, 2011-077U
Orbit
HEO
Country
Flag of CNCN / PRC
Related business
Manufacturer
CALT
Mission
Spacecraft
Bus & Motor
Unknown
Mass
Unknown
Launch date (UTC)
2011-12-19 (14 years ago)
Launch vehicle
Unknown
Launch site
Xichang Space Center, China (XSC)
Object type
Payload
Rocket body
Debris
Shape & HBR
Unknown shape, 0.2 m
Radar Cross Section
Medium (>0.1 m² and <1 m²)

Expand to show TLE details & history
Last TLE update: 5 days ago

TLE from 5 days ago
0 CZ-3B DEB
1 40839U 11077U   25286.21726869  .00004445  00000-0  71854-2 0  9998
2 40839  25.1627 253.3060 7445636 226.8447  40.6972  2.03151546 83877
Epoch: 2025-10-13T05:12Z
TLE epoch observation values (Epoch: 2025-10-13T05:12:52.014Z)
Latitude
-0.00018°
Longitude
152.99499°
Altitude
17,538.9 km
Speed
4.265 km/s
True Right ascension
16h 52m 56s
True Declination
0° 00' 01"
Sunlit
Object was in daylight at epoch
Visualization orbit readout
Latitude
Unknown
Longitude
Unknown
Altitude
Unknown
Speed
Unknown
Apparent Right ascension
Unknown
Apparent Declination
Unknown
Sunlit
N/A
Visualization observer readout
Local Sidereal Time
09:14:44
Azimuth
Unknown
Elevation
Unknown
Doppler factor
Unknown
Orbital elements
Apogee altitude
39,570.899 km
Perigee altitude
349.652 km
Semi-major axis
26,338.412 km
Eccentricity
0.74456
Inclination
25.1627°
RAAN
253.306°
Arg. of periapsis
226.8447°
True anomaly
133.25463°
Mean anomaly
40.6972°
Eccentric anomaly
83.0435°
Mean motion
0.50776 °/min
Orbital period
709 mins
BSTAR
0.0071854
Loading maneuver chart data...
Computing Atmospheric mass density...
Loading historical data...
Loading historical data...
Loading historical data...
Loading historical data...
Loading historical data...
Loading historical data...
Loading historical data...

Documentation

Showing up to 5 results
|